Regional Weather Roundup
Issued by NWS State College, PA

Home | Current Version | Previous Version | Graphics & Text | Print | Product List | Glossary Off
Versions: 1 2 3 4 5 6 7 8 9 10 11 12 13 14 15 16 17 18 19 20 21 22 23 24 25 26 27 28 29 30 31 32 33 34 35 36 37 38 39 40 41 42 43 44 45 46 47 48 49 50

000
ASUS41 KCTP 282303
RWRCTP

REGIONAL WEATHER ROUNDUP
NATIONAL WEATHER SERVICE STATE COLLEGE PA
600 PM EST SAT FEB 28 2015

Note: "fair" indicates few or no clouds below 12,000 feet with no
significant weather and/or obstructions to visibility.

* = STATION THAT DOES NOT REPORT PRECIPITATION /E.G. RAIN...SNOW...ETC/
    THUNDER OR FOG.

PAZ002>004-007>009-013>016-020>023-029>032-010000-
WESTERN PENNSYLVANIA

CITY           SKY/WX    TMP DP  RH WIND       PRES   REMARKS
ERIE           CLEAR     15   2  56 NE5       30.66F WCI   8
MEADVILLE        N/A     20  -4  34 CALM      30.59F
FRANKLIN*      CLEAR     19  -6  32 SE7       30.60F WCI  10
NEW CASTLE     FAIR      22  -5  30 E3        30.63F
BEAVER COUNTY  CLEAR     23   0  36 CALM      30.59F
BUTLER*        CLEAR     19  -2  38 E7        30.62F WCI  10
PITTSBURGH INT PTCLDY    24   1  36 E5        30.60F
PITTSBURGH     PTCLDY    25  -6  25 CALM      30.59F
INDIANA*       CLOUDY    27  -8  22 NE3       30.63F
LATROBE        MOCLDY    27   1  33 N6        30.62F
WASHINGTON CO* PTCLDY    25   3  39 E6        30.61F
$$

PAZ004>006-010>012-017>019-024>028-033>037-041-042-045-046-049>053-010000-
CENTRAL PENNSYLVANIA

CITY           SKY/WX    TMP DP  RH WIND       PRES   REMARKS
BRADFORD       CLEAR     21 -11  23 SE3       30.55F
DUBOIS         CLEAR     21 -10  25 SE3       30.57F
CLEARFIELD     CLEAR     24  -8  24 CALM      30.61F
JOHNSTOWN      CLEAR     22  -4  32 E3        30.53F
ALTOONA        CLEAR     24  -3  30 CALM      30.62F
STATE COLLEGE  CLEAR     23  -6  28 CALM      30.65S
WILLIAMSPORT   CLEAR     24  -1  33 S5        30.71S
SELINSGROVE    CLEAR     24   1  36 CALM      30.73S
FT INDIANTOWN  CLEAR     25  -3  30 SE2       30.73R
CAPITAL CITY   CLEAR     26  -5  25 CALM      30.74S
HARRISBURG     PTCLDY    20   5  52 S3        30.74R
YORK           CLEAR     23   2  40 CALM      30.73S
$$

PAZ038>040-043-044-047-048-054-055-060>062-067>071-010000-
EASTERN PENNSYLVANIA

CITY           SKY/WX    TMP DP  RH WIND       PRES   REMARKS
SCRANTON       CLEAR     23  -1  35 CALM      30.67F
MOUNT POCONO   CLEAR     19  -5  34 N6        30.58S WCI  11
ALLENTOWN      CLEAR     20   0  41 SW6       30.72S WCI  12
QUAKERTOWN*    CLEAR     25   0  33 CALM      30.73R
READING        CLEAR     25  -3  29 SW5       30.73S
LANCASTER      CLEAR     23  -1  35 CALM      30.73S
COATESVILLE    PTCLDY    25   1  36 CALM      30.72S
POTTSTOWN      CLEAR     25  -5  26 CALM      30.76R
BLUE BELL      CLEAR     28   0  29 CALM      30.74R
DOYLESTOWN     CLEAR     24  -4  29 SW3       30.73R
WILLOW GROVE   NOT AVBL
NORTH PHILA    CLEAR     29  -2  26 NW3       30.77R
PHILADELPHIA   MOCLDY    30   2  30 S5        30.77R
$$



USA.gov is the U.S. government's official web portal to all federal, state and local government web resources and services.